| time (UTC) | temp F | wind direction | speed MPH | gust MPH | rain 1hr in | rain 24hr in | rain mn in | humidity % | barometer mb |
| 20260506033015 | 64 | 0.0 | 2.0 | 0.00 | 0.00 | 0.00 | 65 | 1006.3 | |
| 20260506032535 | 64 | 213 | 0.0 | 2.0 | 0.00 | 0.00 | 0.00 | 64 | 1006.3 |
| 20260506032015 | 64 | 235 | 0.0 | 3.0 | 0.00 | 0.00 | 0.00 | 64 | 1006.3 |
| 20260506031515 | 64 | 233 | 0.0 | 7.0 | 0.00 | 0.00 | 0.00 | 64 | 1006.3 |
| 20260506031015 | 65 | 185 | 0.0 | 7.0 | 0.00 | 0.00 | 0.00 | 64 | 1006.3 |
| 20260506030535 | 65 | 201 | 0.0 | 4.0 | 0.00 | 0.00 | 0.00 | 64 | 1006.2 |
| 20260506030015 | 65 | 223 | 0.0 | 4.0 | 0.00 | 0.00 | 0.00 | 64 | 1006.3 |
| 20260506025515 | 65 | 0.0 | 0.0 | 0.00 | 0.00 | 0.00 | 63 | 1006.3 | |
| 20260506025115 | 65 | 0.0 | 1.0 | 0.00 | 0.00 | 0.00 | 63 | 1006.3 | |
| 20260506024515 | 65 | 225 | 0.0 | 1.0 | 0.00 | 0.00 | 0.00 | 63 | 1006.2 |
| 20260506024015 | 66 | 0.0 | 1.0 | 0.00 | 0.00 | 0.00 | 62 | 1006.2 | |
| 20260506023535 | 66 | 196 | 0.0 | 1.0 | 0.00 | 0.00 | 0.00 | 62 | 1006.2 |
| 20260506023015 | 66 | 0.0 | 4.0 | 0.00 | 0.00 | 0.00 | 61 | 1006.2 | |
| 20260506022515 | 66 | 143 | 0.0 | 4.0 | 0.00 | 0.00 | 0.00 | 61 | 1006.2 |
| 20260506022015 | 67 | 0.0 | 0.0 | 0.00 | 0.00 | 0.00 | 60 | 1006.2 | |
| 20260506021515 | 67 | 0.0 | 2.0 | 0.00 | 0.00 | 0.00 | 60 | 1006.2 | |
| 20260506021015 | 67 | 250 | 0.0 | 2.0 | 0.00 | 0.00 | 0.00 | 59 | 1006.2 |
| 20260506020535 | 68 | 0.0 | 0.0 | 0.00 | 0.00 | 0.00 | 59 | 1006.3 | |
| 20260506020015 | 68 | 0.0 | 0.0 | 0.00 | 0.00 | 0.00 | 58 | 1006.2 | |
| 20260506015515 | 68 | 0.0 | 0.0 | 0.00 | 0.00 | 0.00 | 57 | 1006.1 | |
| 20260506015015 | 68 | 0.0 | 1.0 | 0.00 | 0.00 | 0.00 | 57 | 1006.1 | |
| 20260506014515 | 69 | 202 | 0.0 | 1.0 | 0.00 | 0.00 | 0.00 | 57 | 1006.1 |
| 20260506014015 | 69 | 0.0 | 0.0 | 0.00 | 0.00 | 0.00 | 56 | 1006.1 | |
| 20260506013515 | 69 | 0.0 | 0.0 | 0.00 | 0.00 | 0.00 | 55 | 1006.0 | |
| 20260506013015 | 69 | 0.0 | 0.0 | 0.00 | 0.00 | 0.00 | 55 | 1006.0 | |
| 20260506012515 | 70 | 196 | 0.0 | 1.0 | 0.00 | 0.00 | 0.00 | 55 | 1006.0 |
| 20260506012015 | 70 | 198 | 0.0 | 1.0 | 0.00 | 0.00 | 0.00 | 54 | 1005.9 |
| 20260506011515 | 70 | 0.0 | 0.0 | 0.00 | 0.00 | 0.00 | 53 | 1005.9 | |
| 20260506011035 | 71 | 0.0 | 0.0 | 0.00 | 0.00 | 0.00 | 53 | 1005.8 | |
| 20260506010535 | 71 | 0.0 | 0.0 | 0.00 | 0.00 | 0.00 | 52 | 1005.9 | |
| 20260506010015 | 71 | 0.0 | 0.0 | 0.00 | 0.00 | 0.00 | 52 | 1005.9 | |
| 20260506005515 | 71 | 0.0 | 4.0 | 0.00 | 0.00 | 0.00 | 51 | 1005.5 | |
| 20260506005015 | 71 | 249 | 0.0 | 8.0 | 0.00 | 0.00 | 0.00 | 51 | 1005.4 |
| 20260506004515 | 71 | 221 | 1.0 | 8.0 | 0.00 | 0.00 | 0.00 | 51 | 1005.3 |
| 20260506004115 | 72 | 204 | 0.0 | 4.0 | 0.00 | 0.00 | 0.00 | 51 | 1005.2 |
| 20260506003515 | 72 | 0.0 | 0.0 | 0.00 | 0.00 | 0.00 | 50 | 1005.0 | |
| 20260506003035 | 72 | 0.0 | 6.0 | 0.00 | 0.00 | 0.00 | 51 | 1004.8 | |
| 20260506002515 | 72 | 206 | 0.0 | 6.0 | 0.00 | 0.00 | 0.00 | 51 | 1004.7 |
| 20260506002015 | 72 | 0.0 | 4.0 | 0.00 | 0.00 | 0.00 | 51 | 1004.5 | |
| 20260506001515 | 72 | 196 | 0.0 | 4.0 | 0.00 | 0.00 | 0.00 | 51 | 1004.3 |
| 20260506001015 | 72 | 211 | 0.0 | 4.0 | 0.00 | 0.00 | 0.00 | 51 | 1004.1 |
| 20260506000515 | 72 | 0.0 | 1.0 | 0.00 | 0.00 | 0.00 | 51 | 1004.1 | |
| 20260506000015 | 72 | 144 | 0.0 | 3.0 | 0.00 | 0.00 | 0.00 | 50 | 1004.1 |
| 20260505235515 | 73 | 224 | 0.0 | 7.0 | 0.00 | 0.00 | 0.00 | 50 | 1004.1 |
| 20260505235015 | 73 | 205 | 1.0 | 7.0 | 0.00 | 0.00 | 0.00 | 50 | 1004.0 |
| 20260505234515 | 73 | 213 | 0.0 | 4.0 | 0.00 | 0.00 | 0.00 | 49 | 1003.9 |
| 20260505234015 | 74 | 220 | 0.0 | 4.0 | 0.00 | 0.00 | 0.00 | 49 | 1003.8 |
| 20260505233515 | 74 | 202 | 0.0 | 6.0 | 0.00 | 0.00 | 0.00 | 48 | 1003.7 |
| 20260505233015 | 74 | 211 | 0.0 | 12.0 | 0.00 | 0.00 | 0.00 | 48 | 1003.6 |
| 20260505232535 | 75 | 214 | 1.0 | 12.0 | 0.00 | 0.00 | 0.00 | 47 | 1003.6 |
| 20260505232015 | 75 | 83 | 0.0 | 2.0 | 0.00 | 0.00 | 0.00 | 47 | 1003.5 |
| 20260505231515 | 76 | 229 | 0.0 | 9.0 | 0.00 | 0.00 | 0.00 | 46 | 1003.4 |
| 20260505231015 | 76 | 202 | 0.0 | 9.0 | 0.00 | 0.00 | 0.00 | 45 | 1003.3 |
| 20260505230615 | 77 | 0.0 | 0.0 | 0.00 | 0.00 | 0.00 | 43 | 1003.3 | |
| 20260505230015 | 77 | 0.0 | 1.0 | 0.00 | 0.00 | 0.00 | 42 | 1003.1 | |
| 20260505225515 | 77 | 162 | 0.0 | 1.0 | 0.00 | 0.00 | 0.00 | 41 | 1003.1 |
| 20260505225015 | 78 | 175 | 0.0 | 1.0 | 0.00 | 0.00 | 0.00 | 41 | 1003.0 |
| 20260505224535 | 78 | 175 | 0.0 | 25.0 | 0.00 | 0.00 | 0.00 | 41 | 1003.0 |
| 20260505224035 | 78 | 233 | 5.0 | 25.0 | 0.00 | 0.00 | 0.00 | 40 | 1002.9 |
| 20260505223535 | 79 | 189 | 0.0 | 13.0 | 0.00 | 0.00 | 0.00 | 40 | 1002.8 |
| 20260505223015 | 79 | 232 | 3.0 | 13.0 | 0.00 | 0.00 | 0.00 | 38 | 1002.6 |
| 20260505222515 | 79 | 0.0 | 1.0 | 0.00 | 0.00 | 0.00 | 38 | 1002.6 | |
| 20260505222015 | 79 | 209 | 0.0 | 5.0 | 0.00 | 0.00 | 0.00 | 38 | 1002.4 |
| 20260505221515 | 80 | 210 | 0.0 | 20.0 | 0.00 | 0.00 | 0.00 | 37 | 1002.3 |
| 20260505221015 | 80 | 213 | 7.0 | 20.0 | 0.00 | 0.00 | 0.00 | 37 | 1002.3 |
| 20260505220557 | 80 | 206 | 4.0 | 19.0 | 0.00 | 0.00 | 0.00 | 37 | 1002.1 |
| 20260505220017 | 80 | 221 | 2.0 | 20.0 | 0.00 | 0.00 | 0.00 | 36 | 1002.0 |
| 20260505215516 | 80 | 204 | 6.0 | 20.0 | 0.00 | 0.00 | 0.00 | 36 | 1002.1 |
| 20260505215016 | 81 | 216 | 0.0 | 11.0 | 0.00 | 0.00 | 0.00 | 36 | 1002.2 |
| 20260505214517 | 81 | 0.0 | 9.0 | 0.00 | 0.00 | 0.00 | 35 | 1002.2 | |
| 20260505214017 | 81 | 143 | 0.0 | 19.0 | 0.00 | 0.00 | 0.00 | 35 | 1002.1 |
| 20260505213537 | 81 | 216 | 9.0 | 19.0 | 0.00 | 0.00 | 0.00 | 34 | 1002.0 |
| 20260505213016 | 81 | 205 | 3.0 | 21.0 | 0.00 | 0.00 | 0.00 | 35 | 1001.9 |
| 20260505212536 | 81 | 232 | 6.0 | 21.0 | 0.00 | 0.00 | 0.00 | 34 | 1001.9 |
| 20260505212016 | 81 | 214 | 3.0 | 23.0 | 0.00 | 0.00 | 0.00 | 34 | 1002.0 |
| 20260505211517 | 82 | 229 | 5.0 | 23.0 | 0.00 | 0.00 | 0.00 | 33 | 1001.9 |
| 20260505211017 | 82 | 219 | 4.0 | 22.0 | 0.00 | 0.00 | 0.00 | 32 | 1001.8 |
| 20260505210517 | 82 | 197 | 2.0 | 15.0 | 0.00 | 0.00 | 0.00 | 33 | 1001.8 |
| 20260505210036 | 82 | 215 | 2.0 | 20.0 | 0.00 | 0.00 | 0.00 | 32 | 1001.7 |
| 20260505205516 | 82 | 204 | 4.0 | 20.0 | 0.00 | 0.00 | 0.00 | 33 | 1001.6 |
| 20260505205016 | 82 | 218 | 6.0 | 20.0 | 0.00 | 0.00 | 0.00 | 32 | 1001.8 |
| 20260505204516 | 83 | 198 | 3.0 | 20.0 | 0.00 | 0.00 | 0.00 | 32 | 1001.9 |
| 20260505204016 | 82 | 201 | 0.0 | 14.0 | 0.00 | 0.00 | 0.00 | 33 | 1001.8 |
| 20260505203536 | 82 | 207 | 4.0 | 18.0 | 0.00 | 0.00 | 0.00 | 31 | 1001.8 |
| 20260505203017 | 82 | 214 | 6.0 | 23.0 | 0.00 | 0.00 | 0.00 | 30 | 1001.8 |
| 20260505202516 | 83 | 218 | 11.0 | 23.0 | 0.00 | 0.00 | 0.00 | 30 | 1001.9 |
| 20260505202016 | 83 | 206 | 4.0 | 27.0 | 0.00 | 0.00 | 0.00 | 31 | 1001.9 |
| 20260505201516 | 83 | 217 | 7.0 | 29.0 | 0.00 | 0.00 | 0.00 | 31 | 1001.9 |
| 20260505201016 | 83 | 222 | 9.0 | 29.0 | 0.00 | 0.00 | 0.00 | 31 | 1002.0 |
| 20260505200516 | 83 | 217 | 9.0 | 21.0 | 0.00 | 0.00 | 0.00 | 31 | 1002.1 |
| 20260505200016 | 83 | 211 | 7.0 | 21.0 | 0.00 | 0.00 | 0.00 | 32 | 1002.1 |
| 20260505195516 | 83 | 210 | 5.0 | 16.0 | 0.00 | 0.00 | 0.00 | 31 | 1001.9 |
| 20260505195016 | 83 | 212 | 3.0 | 13.0 | 0.00 | 0.00 | 0.00 | 33 | 1002.0 |
| 20260505194536 | 84 | 172 | 0.0 | 10.0 | 0.00 | 0.00 | 0.00 | 32 | 1002.1 |
| 20260505194016 | 84 | 0.0 | 9.0 | 0.00 | 0.00 | 0.00 | 32 | 1002.1 | |
| 20260505193516 | 84 | 187 | 1.0 | 15.0 | 0.00 | 0.00 | 0.00 | 33 | 1002.1 |
| 20260505193016 | 84 | 239 | 2.0 | 15.0 | 0.00 | 0.00 | 0.00 | 32 | 1002.0 |
| 20260505192536 | 84 | 208 | 2.0 | 24.0 | 0.00 | 0.00 | 0.00 | 32 | 1002.1 |
| 20260505192016 | 84 | 223 | 3.0 | 24.0 | 0.00 | 0.00 | 0.00 | 33 | 1002.1 |
| 20260505191516 | 83 | 195 | 2.0 | 19.0 | 0.00 | 0.00 | 0.00 | 34 | 1002.2 |
| 20260505191036 | 83 | 209 | 5.0 | 21.0 | 0.00 | 0.00 | 0.00 | 33 | 1002.2 |
| 20260505190516 | 83 | 183 | 3.0 | 21.0 | 0.00 | 0.00 | 0.00 | 33 | 1002.3 |
| 20260505190056 | 83 | 211 | 3.0 | 21.0 | 0.00 | 0.00 | 0.00 | 34 | 1002.5 |
| 20260505185516 | 82 | 217 | 3.0 | 22.0 | 0.00 | 0.00 | 0.00 | 34 | 1002.5 |
| 20260505185016 | 82 | 218 | 5.0 | 22.0 | 0.00 | 0.00 | 0.00 | 33 | 1002.6 |
| 20260505184516 | 83 | 230 | 3.0 | 20.0 | 0.00 | 0.00 | 0.00 | 34 | 1002.8 |
| 20260505184036 | 83 | 206 | 6.0 | 18.0 | 0.00 | 0.00 | 0.00 | 35 | 1002.8 |
| 20260505183536 | 83 | 195 | 1.0 | 18.0 | 0.00 | 0.00 | 0.00 | 37 | 1002.9 |
| 20260505183056 | 83 | 218 | 4.0 | 16.0 | 0.00 | 0.00 | 0.00 | 37 | 1002.9 |
| 20260505182516 | 83 | 203 | 1.0 | 12.0 | 0.00 | 0.00 | 0.00 | 38 | 1003.0 |
| 20260505182016 | 82 | 153 | 0.0 | 8.0 | 0.00 | 0.00 | 0.00 | 40 | 1003.1 |
| 20260505181516 | 81 | 216 | 1.0 | 14.0 | 0.00 | 0.00 | 0.00 | 41 | 1003.1 |
| 20260505181016 | 81 | 223 | 2.0 | 14.0 | 0.00 | 0.00 | 0.00 | 40 | 1003.3 |
| 20260505180556 | 82 | 206 | 1.0 | 14.0 | 0.00 | 0.00 | 0.00 | 40 | 1003.3 |
| 20260505180016 | 82 | 202 | 3.0 | 14.0 | 0.00 | 0.00 | 0.00 | 39 | 1003.4 |
| 20260505175516 | 82 | 212 | 0.0 | 8.0 | 0.00 | 0.00 | 0.00 | 39 | 1003.5 |
| 20260505175016 | 82 | 0.0 | 1.0 | 0.00 | 0.00 | 0.00 | 38 | 1003.5 | |
| 20260505174516 | 82 | 253 | 0.0 | 13.0 | 0.00 | 0.00 | 0.00 | 38 | 1003.6 |
| 20260505174036 | 82 | 219 | 1.0 | 15.0 | 0.00 | 0.00 | 0.00 | 39 | 1003.6 |
| 20260505173516 | 82 | 225 | 2.0 | 15.0 | 0.00 | 0.00 | 0.00 | 39 | 1003.5 |
| 20260505173016 | 82 | 192 | 1.0 | 12.0 | 0.00 | 0.00 | 0.00 | 41 | 1003.7 |
| 20260505172516 | 82 | 0.0 | 18.0 | 0.00 | 0.00 | 0.00 | 39 | 1003.7 | |
| 20260505172016 | 82 | 221 | 2.0 | 18.0 | 0.00 | 0.00 | 0.00 | 39 | 1003.7 |
| 20260505171516 | 81 | 214 | 2.0 | 16.0 | 0.00 | 0.00 | 0.00 | 40 | 1003.8 |
| 20260505171016 | 82 | 167 | 1.0 | 9.0 | 0.00 | 0.00 | 0.00 | 41 | 1003.9 |
| 20260505170516 | 82 | 195 | 1.0 | 9.0 | 0.00 | 0.00 | 0.00 | 41 | 1004.0 |
| 20260505170016 | 82 | 176 | 0.0 | 10.0 | 0.00 | 0.00 | 0.00 | 40 | 1004.2 |
| 20260505165516 | 81 | 206 | 0.0 | 10.0 | 0.00 | 0.00 | 0.00 | 41 | 1004.3 |
| 20260505165016 | 81 | 213 | 0.0 | 9.0 | 0.00 | 0.00 | 0.00 | 40 | 1004.5 |
| 20260505164536 | 82 | 233 | 0.0 | 9.0 | 0.00 | 0.00 | 0.00 | 41 | 1004.5 |
| 20260505164016 | 82 | 226 | 1.0 | 9.0 | 0.00 | 0.00 | 0.00 | 41 | 1004.5 |
| 20260505163516 | 82 | 0.0 | 0.0 | 0.00 | 0.00 | 0.00 | 39 | 1004.6 | |
| 20260505163016 | 81 | 0.0 | 0.0 | 0.00 | 0.00 | 0.00 | 39 | 1004.7 | |
| 20260505162516 | 81 | 0.0 | 1.0 | 0.00 | 0.00 | 0.00 | 40 | 1004.7 | |
| 20260505162016 | 80 | 197 | 0.0 | 12.0 | 0.00 | 0.00 | 0.00 | 39 | 1004.7 |
| 20260505161516 | 80 | 225 | 1.0 | 12.0 | 0.00 | 0.00 | 0.00 | 39 | 1004.8 |
| 20260505161016 | 80 | 173 | 0.0 | 1.0 | 0.00 | 0.00 | 0.00 | 39 | 1005.1 |
| 20260505160515 | 80 | 0.0 | 13.0 | 0.00 | 0.00 | 0.00 | 40 | 1005.2 | |
| 20260505153016 | 77 | 221 | 0.0 | 6.0 | 0.00 | 0.00 | 0.00 | 46 | 1005.9 |
| 20260505152516 | 76 | 257 | 0.0 | 8.0 | 0.00 | 0.00 | 0.00 | 46 | 1006.0 |
| 20260505152016 | 76 | 217 | 1.0 | 10.0 | 0.00 | 0.00 | 0.00 | 47 | 1006.1 |
| 20260505151516 | 75 | 210 | 1.0 | 10.0 | 0.00 | 0.00 | 0.00 | 47 | 1006.1 |
| 20260505151016 | 74 | 0.0 | 0.0 | 0.00 | 0.00 | 0.00 | 48 | 1006.1 | |
| 20260505150516 | 74 | 0.0 | 0.0 | 0.00 | 0.00 | 0.00 | 49 | 1006.1 | |
| 20260505140515 | 69 | 0.0 | 0.0 | 0.00 | 0.00 | 0.00 | 60 | 1006.6 | |
| 20260505125015 | 61 | 0.0 | 1.0 | 0.00 | 0.00 | 0.00 | 69 | 1006.6 | |
| 20260505124515 | 61 | 194 | 0.0 | 1.0 | 0.00 | 0.00 | 0.00 | 68 | 1006.7 |
| 20260505124015 | 61 | 0.0 | 1.0 | 0.00 | 0.00 | 0.00 | 68 | 1006.6 | |
| 20260505123535 | 61 | 125 | 0.0 | 1.0 | 0.00 | 0.00 | 0.00 | 69 | 1006.6 |
| 20260505123015 | 60 | 0.0 | 0.0 | 0.00 | 0.00 | 0.00 | 70 | 1006.6 | |
| 20260505122515 | 60 | 0.0 | 0.0 | 0.00 | 0.00 | 0.00 | 70 | 1006.5 | |
| 20260505122035 | 59 | 0.0 | 0.0 | 0.00 | 0.00 | 0.00 | 70 | 1006.5 | |
| 20260505121515 | 59 | 0.0 | 7.0 | 0.00 | 0.00 | 0.00 | 71 | 1006.7 | |
| 20260505121015 | 59 | 228 | 0.0 | 7.0 | 0.00 | 0.00 | 0.00 | 71 | 1006.7 |
| 20260505120516 | 58 | 209 | 0.0 | 6.0 | 0.00 | 0.00 | 0.00 | 73 | 1006.7 |
| 20260505120055 | 58 | 230 | 0.0 | 8.0 | 0.00 | 0.00 | 0.00 | 73 | 1006.6 |
| 20260505115535 | 57 | 216 | 0.0 | 8.0 | 0.00 | 0.00 | 0.00 | 74 | 1006.7 |
| 20260505115015 | 57 | 205 | 0.0 | 9.0 | 0.00 | 0.00 | 0.00 | 74 | 1006.8 |
| 20260505114515 | 56 | 258 | 0.0 | 9.0 | 0.00 | 0.00 | 0.00 | 75 | 1006.7 |
| 20260505114015 | 56 | 235 | 0.0 | 6.0 | 0.00 | 0.00 | 0.00 | 75 | 1006.5 |
| 20260505113515 | 56 | 193 | 0.0 | 2.0 | 0.00 | 0.00 | 0.00 | 75 | 1006.6 |
| 20260505113015 | 56 | 0.0 | 0.0 | 0.00 | 0.00 | 0.00 | 76 | 1006.6 | |
| 20260505112535 | 55 | 0.0 | 0.0 | 0.00 | 0.00 | 0.00 | 76 | 1006.5 | |
| 20260505112015 | 55 | 0.0 | 0.0 | 0.00 | 0.00 | 0.00 | 77 | 1006.4 | |
| 20260505111535 | 55 | 0.0 | 1.0 | 0.00 | 0.00 | 0.00 | 77 | 1006.5 | |
| 20260505111015 | 54 | 213 | 0.0 | 1.0 | 0.00 | 0.00 | 0.00 | 78 | 1006.4 |
| 20260505110515 | 54 | 0.0 | 0.0 | 0.00 | 0.00 | 0.00 | 78 | 1006.3 | |
| 20260505102015 | 51 | 0.0 | 0.0 | 0.00 | 0.00 | 0.00 | 81 | 1006.3 | |
| 20260505101515 | 51 | 0.0 | 0.0 | 0.00 | 0.00 | 0.00 | 81 | 1006.3 | |
| 20260505101015 | 51 | 0.0 | 0.0 | 0.00 | 0.00 | 0.00 | 81 | 1006.4 | |
| 20260505100515 | 51 | 0.0 | 0.0 | 0.00 | 0.00 | 0.00 | 81 | 1006.3 | |
| 20260505100015 | 50 | 0.0 | 0.0 | 0.00 | 0.00 | 0.00 | 81 | 1006.3 | |
| 20260505095515 | 50 | 0.0 | 0.0 | 0.00 | 0.00 | 0.00 | 82 | 1006.3 | |
| 20260505095015 | 50 | 0.0 | 0.0 | 0.00 | 0.00 | 0.00 | 82 | 1006.4 | |
| 20260505094535 | 50 | 0.0 | 0.0 | 0.00 | 0.00 | 0.00 | 82 | 1006.5 | |
| 20260505094015 | 50 | 0.0 | 0.0 | 0.00 | 0.00 | 0.00 | 82 | 1006.5 | |
| 20260505093515 | 49 | 0.0 | 0.0 | 0.00 | 0.00 | 0.00 | 82 | 1006.5 | |
| 20260505093015 | 49 | 0.0 | 0.0 | 0.00 | 0.00 | 0.00 | 82 | 1006.5 | |
| 20260505092515 | 49 | 0.0 | 0.0 | 0.00 | 0.00 | 0.00 | 82 | 1006.4 | |
| 20260505092015 | 49 | 0.0 | 0.0 | 0.00 | 0.00 | 0.00 | 83 | 1006.4 | |
| 20260505091515 | 49 | 0.0 | 0.0 | 0.00 | 0.00 | 0.00 | 82 | 1006.5 | |
| 20260505091015 | 49 | 0.0 | 0.0 | 0.00 | 0.00 | 0.00 | 82 | 1006.5 | |
| 20260505090515 | 49 | 0.0 | 0.0 | 0.00 | 0.00 | 0.00 | 82 | 1006.4 | |
| 20260505090015 | 49 | 0.0 | 0.0 | 0.00 | 0.00 | 0.00 | 82 | 1006.4 | |
| 20260505085515 | 49 | 0.0 | 0.0 | 0.00 | 0.00 | 0.00 | 82 | 1006.4 | |
| 20260505085015 | 49 | 0.0 | 0.0 | 0.00 | 0.00 | 0.00 | 81 | 1006.4 | |
| 20260505084515 | 49 | 0.0 | 0.0 | 0.00 | 0.00 | 0.00 | 81 | 1006.5 | |
| 20260505084015 | 49 | 0.0 | 0.0 | 0.00 | 0.00 | 0.00 | 81 | 1006.5 | |
| 20260505083515 | 49 | 0.0 | 0.0 | 0.00 | 0.00 | 0.00 | 81 | 1006.5 | |
| 20260505083015 | 49 | 0.0 | 0.0 | 0.00 | 0.00 | 0.00 | 81 | 1006.5 | |
| 20260505082515 | 49 | 0.0 | 0.0 | 0.00 | 0.00 | 0.00 | 81 | 1006.6 | |
| 20260505082015 | 49 | 0.0 | 0.0 | 0.00 | 0.00 | 0.00 | 81 | 1006.7 | |
| 20260505081515 | 49 | 0.0 | 0.0 | 0.00 | 0.00 | 0.00 | 81 | 1006.7 | |
| 20260505081015 | 49 | 0.0 | 0.0 | 0.00 | 0.00 | 0.00 | 80 | 1006.7 | |
| 20260505080514 | 49 | 0.0 | 0.0 | 0.00 | 0.00 | 0.00 | 80 | 1006.7 | |
| 20260505080035 | 49 | 0.0 | 0.0 | 0.00 | 0.00 | 0.00 | 80 | 1006.7 | |
| 20260505075517 | 49 | 0.0 | 0.0 | 0.00 | 0.00 | 0.00 | 80 | 1006.6 | |
| 20260505075017 | 49 | 0.0 | 0.0 | 0.00 | 0.00 | 0.00 | 80 | 1006.7 | |
| 20260505074517 | 49 | 0.0 | 0.0 | 0.00 | 0.00 | 0.00 | 80 | 1006.8 | |
| 20260505074017 | 49 | 0.0 | 0.0 | 0.00 | 0.00 | 0.00 | 80 | 1006.9 | |
| 20260505073516 | 49 | 0.0 | 0.0 | 0.00 | 0.00 | 0.00 | 79 | 1006.8 | |
| 20260505073037 | 49 | 0.0 | 0.0 | 0.00 | 0.00 | 0.00 | 79 | 1006.8 | |
| 20260505072516 | 49 | 0.0 | 0.0 | 0.00 | 0.00 | 0.00 | 79 | 1006.8 | |
| 20260505072016 | 49 | 0.0 | 0.0 | 0.00 | 0.00 | 0.00 | 79 | 1006.8 | |
| 20260505071516 | 49 | 0.0 | 0.0 | 0.00 | 0.00 | 0.00 | 78 | 1006.8 | |
| 20260505071056 | 49 | 0.0 | 0.0 | 0.00 | 0.00 | 0.00 | 78 | 1006.8 | |
| 20260505070536 | 50 | 0.0 | 0.0 | 0.00 | 0.00 | 0.00 | 78 | 1006.9 | |
| 20260505070016 | 50 | 0.0 | 0.0 | 0.00 | 0.00 | 0.00 | 77 | 1006.9 | |
| 20260505065536 | 50 | 0.0 | 0.0 | 0.00 | 0.00 | 0.00 | 77 | 1007.0 | |
| 20260505065016 | 50 | 0.0 | 0.0 | 0.00 | 0.00 | 0.00 | 77 | 1006.9 | |
| 20260505064516 | 50 | 0.0 | 0.0 | 0.00 | 0.00 | 0.00 | 76 | 1006.9 | |
| 20260505064016 | 50 | 0.0 | 0.0 | 0.00 | 0.00 | 0.00 | 76 | 1006.9 | |
| 20260505063516 | 50 | 0.0 | 0.0 | 0.00 | 0.00 | 0.00 | 76 | 1006.9 | |
| 20260505063016 | 51 | 0.0 | 0.0 | 0.00 | 0.00 | 0.00 | 76 | 1007.0 | |
| 20260505062556 | 51 | 0.0 | 0.0 | 0.00 | 0.00 | 0.00 | 75 | 1007.1 | |
| 20260505062036 | 51 | 0.0 | 0.0 | 0.00 | 0.00 | 0.00 | 75 | 1007.1 | |
| 20260505061536 | 51 | 0.0 | 0.0 | 0.00 | 0.00 | 0.00 | 75 | 1007.1 | |
| 20260505061016 | 51 | 0.0 | 0.0 | 0.00 | 0.00 | 0.00 | 74 | 1007.1 | |
| 20260505060516 | 51 | 0.0 | 0.0 | 0.00 | 0.00 | 0.00 | 74 | 1007.1 | |
| 20260505060016 | 51 | 0.0 | 0.0 | 0.00 | 0.00 | 0.00 | 74 | 1007.1 | |
| 20260505055516 | 51 | 0.0 | 0.0 | 0.00 | 0.00 | 0.00 | 74 | 1007.1 | |
| 20260505055036 | 51 | 0.0 | 0.0 | 0.00 | 0.00 | 0.00 | 74 | 1007.1 | |
| 20260505054516 | 51 | 0.0 | 0.0 | 0.00 | 0.00 | 0.00 | 73 | 1007.2 | |
| 20260505054016 | 51 | 0.0 | 0.0 | 0.00 | 0.00 | 0.00 | 73 | 1007.2 | |
| 20260505053516 | 52 | 0.0 | 0.0 | 0.00 | 0.00 | 0.00 | 72 | 1007.2 | |
| 20260505053016 | 52 | 0.0 | 0.0 | 0.00 | 0.00 | 0.00 | 71 | 1007.2 | |
| 20260505052556 | 52 | 0.0 | 0.0 | 0.00 | 0.00 | 0.00 | 70 | 1007.2 | |
| 20260505052016 | 52 | 0.0 | 0.0 | 0.00 | 0.00 | 0.00 | 70 | 1007.2 | |
| 20260505051516 | 53 | 0.0 | 0.0 | 0.00 | 0.00 | 0.00 | 69 | 1007.2 | |
| 20260505051116 | 53 | 0.0 | 0.0 | 0.00 | 0.00 | 0.00 | 68 | 1007.2 | |
| 20260505050516 | 53 | 0.0 | 0.0 | 0.00 | 0.00 | 0.00 | 67 | 1007.3 | |
| 20260505041516 | 56 | 0.0 | 0.0 | 0.00 | 0.00 | 0.00 | 62 | 1007.2 | |
| 20260505041016 | 56 | 0.0 | 0.0 | 0.00 | 0.00 | 0.00 | 62 | 1007.1 | |
| 20260505040516 | 56 | 0.0 | 0.0 | 0.00 | 0.00 | 0.00 | 61 | 1007.1 | |
| 20260505040036 | 57 | 0.0 | 0.0 | 0.00 | 0.00 | 0.00 | 61 | 1007.0 | |
| 20260505035516 | 57 | 0.0 | 0.0 | 0.00 | 0.00 | 0.00 | 60 | 1007.0 | |
| 20260505035016 | 57 | 0.0 | 0.0 | 0.00 | 0.00 | 0.00 | 60 | 1006.9 | |
| 20260505034516 | 57 | 0.0 | 0.0 | 0.00 | 0.00 | 0.00 | 59 | 1006.9 | |
| 20260505034016 | 58 | 0.0 | 0.0 | 0.00 | 0.00 | 0.00 | 59 | 1006.9 | |
| 20260505033516 | 58 | 0.0 | 0.0 | 0.00 | 0.00 | 0.00 | 59 | 1006.9 |